ANZ90 RJAA-NZAA

Flight info

Callsign ANZ90
Flight time N/A
Altitude 33000
Route OLVAN Y823 MERED Y821 DAGDA A337 SAGOP 2100N14629E 20N147E 15N149E 10N152E/N0493F350 05N154E 00N156E DCT PONOK B452 MAGPO DCT 09S160E DCT DUMUL A597 ENOUS/N0484F370 A597 GOPRA DCT 25S168E DCT LEKAX DCT 29S170E DCT MINET A597 DUGAN
Aircraft B77W/H-SDE1E2E3FGHIJ2J3J4J5M1RWXY/LB1D1

Departure

Time N/A
Airport Narita International Airport (RJAA)

Arrival

Time 2026-05-05 07:59
Airport Auckland International Airport (NZAA)
Time Latitude Longitude Altitude Speed Heading
2026-05-05 06:26 -27.56270 169.29275 37163 ft 433 kts 166°
2026-05-05 06:26 -27.61810 169.31963 37154 ft 432 kts 166°
2026-05-05 06:27 -27.70159 169.36018 37166 ft 433 kts 166°
2026-05-05 06:28 -27.75697 169.38713 37170 ft 433 kts 166°
2026-05-05 06:28 -27.81227 169.41406 37168 ft 433 kts 166°
2026-05-05 06:29 -27.86803 169.44125 37174 ft 432 kts 166°
2026-05-05 06:29 -27.92301 169.46809 37174 ft 432 kts 166°
2026-05-05 06:30 -27.97879 169.49536 37175 ft 433 kts 166°
2026-05-05 06:30 -28.03412 169.52245 37176 ft 430 kts 166°
2026-05-05 06:31 -28.08929 169.54944 37177 ft 433 kts 166°
2026-05-05 06:31 -28.14444 169.57649 37195 ft 432 kts 166°
2026-05-05 06:32 -28.19985 169.60371 37202 ft 430 kts 166°
2026-05-05 06:32 -28.25512 169.63086 37200 ft 431 kts 166°
2026-05-05 06:33 -28.31044 169.65808 37190 ft 432 kts 166°
2026-05-05 06:33 -28.36545 169.68518 37198 ft 431 kts 166°
2026-05-05 06:34 -28.42101 169.71257 37194 ft 431 kts 166°
2026-05-05 06:34 -28.47617 169.73982 37191 ft 429 kts 166°
2026-05-05 06:35 -28.53120 169.76701 37201 ft 431 kts 166°
2026-05-05 06:35 -28.58661 169.79442 37204 ft 433 kts 166°
2026-05-05 06:36 -28.64219 169.82196 37204 ft 433 kts 165°
2026-05-05 06:36 -28.69736 169.84933 37213 ft 432 kts 166°
2026-05-05 06:37 -28.75291 169.87691 37213 ft 432 kts 166°
2026-05-05 06:37 -28.80829 169.90443 37215 ft 434 kts 166°
2026-05-05 06:38 -28.86333 169.93185 37216 ft 430 kts 166°
2026-05-05 06:38 -28.91875 169.95946 37225 ft 431 kts 166°
2026-05-05 06:39 -28.97459 169.98730 37234 ft 434 kts 165°
2026-05-05 06:39 -29.02751 170.02315 37237 ft 449 kts 154°
2026-05-05 06:40 -29.07824 170.06552 37229 ft 447 kts 154°
2026-05-05 06:40 -29.12861 170.10771 37254 ft 450 kts 154°
2026-05-05 06:41 -29.17923 170.15018 37251 ft 449 kts 153°
2026-05-05 06:41 -29.22999 170.19282 37252 ft 454 kts 153°
2026-05-05 06:42 -29.28081 170.23560 37254 ft 451 kts 153°
2026-05-05 06:42 -29.33168 170.27844 37254 ft 451 kts 153°
2026-05-05 06:43 -29.38219 170.32106 37256 ft 451 kts 153°
2026-05-05 06:43 -29.43364 170.36449 37259 ft 455 kts 153°
2026-05-05 06:44 -29.48461 170.40761 37261 ft 451 kts 153°
2026-05-05 06:44 -29.53590 170.45100 37266 ft 458 kts 152°
2026-05-05 06:45 -29.58725 170.49457 37263 ft 455 kts 152°
2026-05-05 06:45 -29.63831 170.53790 37271 ft 459 kts 152°
2026-05-05 06:46 -29.68964 170.58154 37267 ft 458 kts 152°
2026-05-05 06:46 -29.74100 170.62527 37265 ft 455 kts 152°
2026-05-05 06:47 -29.79248 170.66913 37258 ft 460 kts 151°
2026-05-05 06:47 -29.84409 170.71318 37265 ft 460 kts 150°
2026-05-05 06:48 -29.89589 170.75743 37269 ft 460 kts 150°
2026-05-05 06:48 -29.94796 170.80084 37269 ft 458 kts 155°
2026-05-05 06:49 -30.00354 170.83641 37271 ft 456 kts 158°
2026-05-05 06:49 -30.05925 170.87138 37274 ft 455 kts 158°
2026-05-05 06:50 -30.11546 170.90671 37283 ft 458 kts 158°
2026-05-05 06:50 -30.17147 170.94200 37287 ft 456 kts 158°
2026-05-05 06:51 -30.22776 170.97751 37288 ft 459 kts 158°
2026-05-05 06:51 -30.28394 171.01300 37287 ft 458 kts 157°
2026-05-05 06:52 -30.34045 171.04874 37298 ft 463 kts 157°
2026-05-05 06:52 -30.39700 171.08456 37296 ft 462 kts 157°
2026-05-05 06:53 -30.45370 171.12054 37295 ft 462 kts 157°
2026-05-05 06:53 -30.51060 171.15668 37310 ft 462 kts 156°
2026-05-05 06:54 -30.56730 171.19273 37303 ft 463 kts 156°
2026-05-05 06:54 -30.62403 171.22887 37310 ft 465 kts 156°
2026-05-05 06:55 -30.68118 171.26532 37314 ft 465 kts 156°
2026-05-05 06:55 -30.73804 171.30164 37312 ft 467 kts 156°
2026-05-05 06:56 -30.79515 171.33815 37310 ft 466 kts 156°
2026-05-05 06:56 -30.85185 171.37445 37319 ft 470 kts 156°
2026-05-05 06:57 -30.90907 171.41116 37361 ft 469 kts 155°
2026-05-05 06:57 -30.96637 171.44795 37307 ft 468 kts 155°
2026-05-05 06:58 -31.02373 171.48483 37321 ft 469 kts 155°
2026-05-05 06:58 -31.08126 171.52188 37322 ft 470 kts 155°
2026-05-05 06:59 -31.13855 171.55882 37328 ft 471 kts 155°
2026-05-05 06:59 -31.19577 171.59578 37328 ft 471 kts 155°
2026-05-05 07:00 -31.25349 171.63309 37336 ft 472 kts 155°
2026-05-05 07:00 -31.31131 171.67053 37325 ft 473 kts 154°
2026-05-05 07:01 -31.36909 171.70799 37328 ft 473 kts 154°
2026-05-05 07:01 -31.42662 171.74536 37328 ft 474 kts 154°
2026-05-05 07:02 -31.48443 171.78294 37331 ft 474 kts 154°
2026-05-05 07:02 -31.54215 171.82054 37328 ft 475 kts 154°
2026-05-05 07:03 -31.60010 171.85834 37332 ft 476 kts 154°
2026-05-05 07:03 -31.65828 171.89633 37331 ft 476 kts 154°
2026-05-05 07:04 -31.71604 171.93410 37338 ft 478 kts 154°
2026-05-05 07:04 -31.77420 171.97220 37332 ft 477 kts 154°
2026-05-05 07:05 -31.83236 172.01035 37332 ft 477 kts 154°
2026-05-05 07:05 -31.89109 172.04892 37339 ft 478 kts 154°
2026-05-05 07:06 -31.94948 172.08734 37351 ft 479 kts 154°
2026-05-05 07:06 -32.00787 172.12581 37343 ft 478 kts 153°
2026-05-05 07:07 -32.06623 172.16431 37347 ft 479 kts 153°
2026-05-05 07:07 -32.12451 172.20282 37354 ft 480 kts 153°
2026-05-05 07:08 -32.18301 172.24153 37361 ft 480 kts 153°
2026-05-05 07:08 -32.24187 172.28053 37365 ft 481 kts 153°
2026-05-05 07:09 -32.30042 172.31940 37368 ft 481 kts 153°
2026-05-05 07:09 -32.35902 172.35835 37372 ft 481 kts 153°
2026-05-05 07:10 -32.41752 172.39729 37377 ft 481 kts 153°
2026-05-05 07:10 -32.47674 172.43678 37378 ft 482 kts 153°
2026-05-05 07:11 -32.53548 172.47600 37384 ft 483 kts 153°
2026-05-05 07:11 -32.59415 172.51524 37381 ft 483 kts 153°
2026-05-05 07:12 -32.65307 172.55470 37386 ft 482 kts 153°
2026-05-05 07:12 -32.71169 172.59401 37392 ft 483 kts 153°
2026-05-05 07:13 -32.77057 172.63358 37398 ft 484 kts 153°
2026-05-05 07:13 -32.82959 172.67329 37393 ft 485 kts 152°
2026-05-05 07:14 -32.88818 172.71277 37399 ft 485 kts 152°
2026-05-05 07:14 -32.94720 172.75259 37404 ft 485 kts 152°
2026-05-05 07:15 -33.00645 172.79266 37402 ft 486 kts 152°
2026-05-05 07:15 -33.06546 172.83261 37403 ft 486 kts 152°
2026-05-05 07:16 -33.12160 172.87067 37404 ft 486 kts 152°
2026-05-05 07:16 -33.18309 172.91243 37408 ft 486 kts 152°
2026-05-05 07:17 -33.24232 172.95271 37408 ft 486 kts 152°
2026-05-05 07:17 -33.30131 172.99291 37410 ft 487 kts 152°
2026-05-05 07:18 -33.36017 173.03307 37411 ft 488 kts 152°
2026-05-05 07:18 -33.41938 173.07353 37415 ft 488 kts 152°
2026-05-05 07:19 -33.47869 173.11412 37418 ft 487 kts 152°
2026-05-05 07:19 -33.53779 173.15465 37418 ft 489 kts 152°
2026-05-05 07:20 -33.59723 173.19547 37414 ft 488 kts 151°
2026-05-05 07:20 -33.65598 173.23587 37424 ft 489 kts 151°
2026-05-05 07:21 -33.71520 173.27666 37428 ft 489 kts 151°
2026-05-05 07:21 -33.77457 173.31763 37432 ft 489 kts 151°
2026-05-05 07:22 -33.83391 173.35863 37431 ft 489 kts 151°
2026-05-05 07:22 -33.89663 173.38960 37424 ft 486 kts 169°
2026-05-05 07:23 -33.96363 173.40036 37438 ft 485 kts 176°
2026-05-05 07:23 -34.03090 173.40828 37440 ft 484 kts 176°
2026-05-05 07:24 -34.09809 173.41621 37435 ft 484 kts 176°
2026-05-05 07:24 -34.16272 173.42389 37438 ft 484 kts 176°
2026-05-05 07:25 -34.23058 173.43198 37448 ft 484 kts 176°
2026-05-05 07:25 -34.29804 173.44005 37443 ft 484 kts 176°
2026-05-05 07:26 -34.36524 173.44809 37447 ft 485 kts 176°
2026-05-05 07:26 -34.43288 173.45621 37450 ft 486 kts 176°
2026-05-05 07:27 -34.50053 173.46434 37450 ft 485 kts 176°
2026-05-05 07:27 -34.56737 173.47238 37449 ft 485 kts 176°
2026-05-05 07:28 -34.63498 173.48053 37458 ft 486 kts 176°
2026-05-05 07:28 -34.70243 173.48868 37461 ft 485 kts 176°
2026-05-05 07:29 -34.77017 173.49687 37463 ft 485 kts 176°
2026-05-05 07:29 -34.83802 173.50510 37464 ft 486 kts 176°
2026-05-05 07:30 -34.90566 173.51331 37465 ft 486 kts 176°
2026-05-05 07:30 -35.00747 173.52570 37469 ft 487 kts 176°
2026-05-05 07:31 -35.07500 173.53394 37472 ft 486 kts 176°
2026-05-05 07:31 -35.14123 173.54201 37470 ft 485 kts 176°
2026-05-05 07:32 -35.20903 173.55031 37472 ft 486 kts 176°
2026-05-05 07:32 -35.27644 173.55856 37338 ft 480 kts 176°
2026-05-05 07:33 -35.30987 173.56267 36511 ft 483 kts 176°
2026-05-05 07:33 -35.34391 173.56685 35562 ft 488 kts 176°
2026-05-05 07:33 -35.37813 173.57104 34778 ft 492 kts 176°
2026-05-05 07:33 -35.41223 173.57523 33946 ft 497 kts 176°
2026-05-05 07:34 -35.44690 173.57950 32917 ft 502 kts 176°
2026-05-05 07:34 -35.48221 173.58385 31931 ft 505 kts 176°
2026-05-05 07:34 -35.51710 173.58815 31063 ft 505 kts 176°
2026-05-05 07:34 -35.55221 173.59248 30560 ft 497 kts 176°
2026-05-05 07:35 -35.58652 173.59672 30049 ft 491 kts 176°
2026-05-05 07:35 -35.62075 173.60097 29473 ft 486 kts 176°
2026-05-05 07:35 -35.65438 173.60513 28905 ft 481 kts 175°
2026-05-05 07:35 -35.68773 173.60925 28313 ft 476 kts 175°
2026-05-05 07:36 -35.72104 173.61339 27727 ft 471 kts 175°
2026-05-05 07:36 -35.75400 173.61748 27150 ft 467 kts 175°
2026-05-05 07:36 -35.78613 173.62146 26557 ft 462 kts 175°
2026-05-05 07:36 -35.81852 173.62549 25964 ft 458 kts 175°
2026-05-05 07:37 -35.85009 173.62941 25370 ft 453 kts 175°
2026-05-05 07:37 -35.88161 173.63333 24781 ft 449 kts 174°
2026-05-05 07:37 -35.91280 173.63721 24210 ft 444 kts 174°
2026-05-05 07:37 -35.94350 173.64104 23618 ft 440 kts 174°
2026-05-05 07:38 -35.97379 173.64481 23050 ft 435 kts 174°
2026-05-05 07:38 -36.00385 173.64856 22493 ft 431 kts 174°
2026-05-05 07:38 -36.03332 173.65224 21909 ft 428 kts 173°
2026-05-05 07:38 -36.06305 173.65596 21334 ft 424 kts 173°
2026-05-05 07:39 -36.09236 173.65962 20753 ft 421 kts 173°
2026-05-05 07:39 -36.11782 173.66281 20235 ft 418 kts 172°
2026-05-05 07:39 -36.14324 173.66599 19733 ft 414 kts 172°
2026-05-05 07:39 -36.17444 173.66991 19112 ft 410 kts 172°
2026-05-05 07:40 -36.20427 173.67364 18498 ft 407 kts 172°
2026-05-05 07:40 -36.23252 173.67719 17914 ft 403 kts 172°
2026-05-05 07:40 -36.26006 173.68065 17331 ft 399 kts 172°
2026-05-05 07:40 -36.28782 173.68414 16761 ft 396 kts 172°
2026-05-05 07:41 -36.31534 173.68761 16194 ft 392 kts 172°
2026-05-05 07:41 -36.34228 173.69099 15613 ft 389 kts 172°
2026-05-05 07:41 -36.36876 173.69702 15033 ft 383 kts 161°
2026-05-05 07:41 -36.39368 173.70897 14225 ft 383 kts 150°
2026-05-05 07:42 -36.41625 173.72685 13560 ft 379 kts 139°
2026-05-05 07:42 -36.43589 173.74841 12984 ft 374 kts 134°
2026-05-05 07:42 -36.45490 173.77052 12435 ft 369 kts 134°
2026-05-05 07:42 -36.47331 173.79225 11875 ft 366 kts 134°
2026-05-05 07:43 -36.49186 173.81435 11310 ft 362 kts 133°
2026-05-05 07:43 -36.50978 173.83578 10874 ft 354 kts 133°
2026-05-05 07:43 -36.52714 173.85667 10815 ft 336 kts 133°
2026-05-05 07:43 -36.54352 173.87642 10729 ft 321 kts 133°
2026-05-05 07:44 -36.55912 173.89534 10593 ft 309 kts 133°
2026-05-05 07:44 -36.57420 173.91368 10467 ft 297 kts 133°
2026-05-05 07:44 -36.58881 173.93149 10332 ft 287 kts 132°
2026-05-05 07:44 -36.60282 173.94858 10194 ft 277 kts 132°
2026-05-05 07:45 -36.61644 173.96524 9908 ft 274 kts 132°
2026-05-05 07:45 -36.62998 173.98180 9595 ft 272 kts 132°
2026-05-05 07:45 -36.64347 173.99831 9295 ft 270 kts 132°
2026-05-05 07:45 -36.65669 174.01448 9008 ft 269 kts 132°
2026-05-05 07:46 -36.67017 174.03099 8723 ft 268 kts 132°
2026-05-05 07:46 -36.68335 174.04713 8441 ft 266 kts 132°
2026-05-05 07:46 -36.69645 174.06319 8160 ft 265 kts 132°
2026-05-05 07:46 -36.70967 174.07939 7886 ft 263 kts 132°
2026-05-05 07:47 -36.72264 174.09532 7623 ft 262 kts 132°
2026-05-05 07:47 -36.73566 174.11130 7337 ft 261 kts 131°
2026-05-05 07:47 -36.74860 174.12718 7066 ft 259 kts 131°
2026-05-05 07:47 -36.76127 174.14275 6803 ft 258 kts 131°
2026-05-05 07:48 -36.77408 174.15849 6536 ft 257 kts 131°
2026-05-05 07:48 -36.78679 174.17412 6260 ft 255 kts 131°
2026-05-05 07:48 -36.79937 174.18961 5991 ft 254 kts 131°
2026-05-05 07:48 -36.81205 174.20522 5728 ft 253 kts 131°
2026-05-05 07:49 -36.82448 174.22054 5469 ft 252 kts 131°
2026-05-05 07:49 -36.83713 174.23612 5200 ft 252 kts 131°
2026-05-05 07:49 -36.84951 174.25137 4969 ft 250 kts 131°
2026-05-05 07:49 -36.86193 174.26671 4949 ft 250 kts 131°
2026-05-05 07:50 -36.87439 174.28207 4923 ft 251 kts 131°
2026-05-05 07:50 -36.88673 174.29733 4863 ft 251 kts 132°
2026-05-05 07:50 -36.89924 174.31277 4812 ft 250 kts 132°
2026-05-05 07:50 -36.91158 174.32803 4757 ft 250 kts 132°
2026-05-05 07:51 -36.92390 174.34326 4689 ft 250 kts 131°
2026-05-05 07:51 -36.93628 174.35857 4631 ft 250 kts 132°
2026-05-05 07:51 -36.94875 174.37401 4570 ft 249 kts 132°
2026-05-05 07:51 -36.96108 174.38928 4509 ft 249 kts 132°
2026-05-05 07:52 -36.97335 174.40449 4451 ft 249 kts 132°
2026-05-05 07:52 -36.98562 174.41969 4393 ft 249 kts 132°
2026-05-05 07:52 -36.99806 174.43512 4336 ft 249 kts 132°
2026-05-05 07:52 -37.01040 174.45044 4273 ft 248 kts 132°
2026-05-05 07:53 -37.02260 174.46559 4212 ft 248 kts 132°
2026-05-05 07:53 -37.03474 174.48065 4149 ft 238 kts 132°
2026-05-05 07:53 -37.04612 174.49477 4096 ft 228 kts 132°
2026-05-05 07:53 -37.05710 174.50841 4045 ft 215 kts 132°
2026-05-05 07:54 -37.06739 174.52121 3991 ft 201 kts 131°
2026-05-05 07:54 -37.07465 174.53508 3931 ft 183 kts 103°
2026-05-05 07:54 -37.07579 174.55063 3759 ft 180 kts 83°
2026-05-05 07:54 -37.07313 174.56564 3520 ft 176 kts 72°
2026-05-05 07:55 -37.06915 174.58020 3278 ft 175 kts 70°
2026-05-05 07:55 -37.06513 174.59439 3038 ft 175 kts 70°
2026-05-05 07:55 -37.06117 174.60855 2792 ft 168 kts 70°
2026-05-05 07:55 -37.05740 174.62215 2561 ft 158 kts 70°
2026-05-05 07:56 -37.05389 174.63483 2351 ft 150 kts 70°
2026-05-05 07:56 -37.05059 174.64679 2149 ft 143 kts 70°
2026-05-05 07:56 -37.04736 174.65858 1955 ft 144 kts 69°
2026-05-05 07:56 -37.04413 174.67040 1752 ft 142 kts 69°
2026-05-05 07:57 -37.04088 174.68210 1551 ft 143 kts 69°
2026-05-05 07:57 -37.03760 174.69400 1347 ft 143 kts 70°
2026-05-05 07:57 -37.03433 174.70579 1145 ft 144 kts 70°
2026-05-05 07:57 -37.03109 174.71753 945 ft 144 kts 70°
2026-05-05 07:58 -37.02775 174.72961 739 ft 145 kts 71°
2026-05-05 07:58 -37.02442 174.74144 570 ft 145 kts 70°
2026-05-05 07:58 -37.02100 174.75346 367 ft 147 kts 71°
2026-05-05 07:58 -37.01776 174.76550 158 ft 145 kts 71°
2026-05-05 07:59 -37.01456 174.77719 38 ft 132 kts 70°
2026-05-05 07:59 -37.01192 174.78676 35 ft 98 kts 71°
2026-05-05 07:59 -37.01075 174.79097 33 ft 0 kts 71°